Datetime-UTC, Datetime-J2000, North, East, Up
2024/03/21 00:00:00, 764251200.00, 0.000000, 0.000000, 0.000000
2024/03/21 00:05:00, 764251500.00, 0.011800, 0.002100, -0.011100
2024/03/21 00:10:00, 764251800.00, 0.007800, 0.000200, -0.003400
2024/03/21 00:15:00, 764252100.00, 0.003700, 0.010400, -0.016100
2024/03/21 00:20:00, 764252400.00, 0.006900, 0.006300, -0.007600
2024/03/21 00:25:00, 764252700.00, 0.014900, 0.002600, -0.030400
2024/03/21 00:30:00, 764253000.00, 0.006200, 0.003200, 0.002500
2024/03/21 00:35:00, 764253300.00, 0.003200, 0.003400, -0.003900
2024/03/21 00:40:00, 764253600.00, -0.001200, 0.015200, -0.003500
2024/03/21 00:45:00, 764253900.00, 0.014700, 0.010500, -0.018900
2024/03/21 00:50:00, 764254200.00, 0.003500, 0.011400, -0.008200
2024/03/21 00:55:00, 764254500.00, -0.000100, 0.019700, -0.012300
2024/03/21 01:00:00, 764254800.00, 0.015000, 0.010900, -0.007200
2024/03/21 01:05:00, 764255100.00, 0.011900, 0.020200, -0.024700
2024/03/21 01:10:00, 764255400.00, 0.009200, 0.011500, -0.015400
2024/03/21 01:15:00, 764255700.00, -0.003200, 0.011900, 0.011000
2024/03/21 01:20:00, 764256000.00, 0.011100, 0.017300, -0.018100
2024/03/21 01:25:00, 764256300.00, 0.013500, 0.010000, -0.011800
2024/03/21 01:30:00, 764256600.00, 0.011800, 0.015900, -0.018200
2024/03/21 01:35:00, 764256900.00, 0.004500, 0.014600, -0.000800
2024/03/21 01:40:00, 764257200.00, 0.004100, 0.015800, -0.010700
2024/03/21 01:45:00, 764257500.00, 0.005300, 0.023200, -0.013200
2024/03/21 01:50:00, 764257800.00, 0.016800, 0.026200, -0.004100
2024/03/21 01:55:00, 764258100.00, 0.007500, 0.021900, 0.006200
2024/03/21 02:00:00, 764258400.00, 0.023400, 0.022000, 0.013200
2024/03/21 02:05:00, 764258700.00, 0.015800, 0.025700, -0.011800
2024/03/21 02:10:00, 764259000.00, 0.014300, 0.027600, -0.011200
2024/03/21 02:15:00, 764259300.00, 0.015400, 0.028700, -0.021000
2024/03/21 02:20:00, 764259600.00, 0.021600, 0.030600, -0.012200
2024/03/21 02:25:00, 764259900.00, 0.016200, 0.028800, -0.026100
2024/03/21 02:30:00, 764260200.00, 0.010300, 0.031000, -0.013600
2024/03/21 02:35:00, 764260500.00, 0.020400, 0.034000, -0.020900
2024/03/21 02:40:00, 764260800.00, 0.025100, 0.029100, -0.019500
2024/03/21 02:45:00, 764261100.00, 0.022100, 0.026600, -0.017900
2024/03/21 02:50:00, 764261400.00, 0.017300, 0.025400, -0.005400
2024/03/21 02:55:00, 764261700.00, 0.014400, 0.025500, -0.008400
2024/03/21 03:00:00, 764262000.00, 0.009800, 0.027800, -0.014500
2024/03/21 03:05:00, 764262300.00, 0.015100, 0.030100, -0.021000
2024/03/21 03:10:00, 764262600.00, 0.009600, 0.028800, -0.009100
2024/03/21 03:15:00, 764262900.00, 0.015200, 0.025300, -0.011300
2024/03/21 03:20:00, 764263200.00, 0.022100, 0.033900, -0.023600
2024/03/21 03:25:00, 764263500.00, 0.013000, 0.026300, -0.001200
2024/03/21 03:30:00, 764263800.00, 0.023600, 0.033700, -0.046500
2024/03/21 03:35:00, 764264100.00, 0.017600, 0.026500, -0.010400
2024/03/21 03:40:00, 764264400.00, 0.011100, 0.026300, -0.017000
2024/03/21 03:45:00, 764264700.00, 0.022200, 0.032500, -0.040300
2024/03/21 03:50:00, 764265000.00, 0.023700, 0.033100, -0.013900
2024/03/21 03:55:00, 764265300.00, 0.000800, 0.034800, -0.026100
2024/03/21 04:00:00, 764265600.00, 0.028400, 0.030800, -0.026000
2024/03/21 04:05:00, 764265900.00, 0.025500, 0.030900, -0.033200
2024/03/21 04:10:00, 764266200.00, 0.022200, 0.031700, -0.029800
2024/03/21 04:15:00, 764266500.00, 0.021800, 0.031800, -0.023600
2024/03/21 04:20:00, 764266800.00, 0.021000, 0.025700, -0.023500
2024/03/21 04:25:00, 764267100.00, 0.031600, 0.032900, -0.034100
2024/03/21 04:30:00, 764267400.00, 0.011400, 0.022300, -0.014100
2024/03/21 04:35:00, 764267700.00, 0.020400, 0.029700, -0.027000
2024/03/21 04:40:00, 764268000.00, 0.018400, 0.029800, -0.036900
2024/03/21 04:45:00, 764268300.00, 0.019000, 0.033000, -0.045900
2024/03/21 04:50:00, 764268600.00, 0.019900, 0.030100, -0.024900
2024/03/21 04:55:00, 764268900.00, 0.021300, 0.030700, -0.037600
2024/03/21 05:00:00, 764269200.00, 0.020100, 0.036700, -0.020000
2024/03/21 05:05:00, 764269500.00, 0.022000, 0.027800, -0.030600
2024/03/21 05:10:00, 764269800.00, 0.024800, 0.021700, -0.006100
2024/03/21 05:15:00, 764270100.00, 0.024600, 0.036600, -0.012100
2024/03/21 05:20:00, 764270400.00, 0.017300, 0.042100, -0.017400
2024/03/21 05:25:00, 764270700.00, 0.016900, 0.039700, -0.014200
2024/03/21 05:30:00, 764271000.00, 0.012000, 0.039000, -0.021700
2024/03/21 05:35:00, 764271300.00, 0.015200, 0.040100, -0.015300
2024/03/21 05:40:00, 764271600.00, 0.028800, 0.021600, 0.029200
2024/03/21 05:45:00, 764271900.00, 0.021900, 0.021200, 0.007800
2024/03/21 05:50:00, 764272200.00, 0.022700, 0.022900, -0.005900
2024/03/21 05:55:00, 764272500.00, 0.008700, 0.017500, 0.002000
2024/03/21 06:00:00, 764272800.00, 0.017500, 0.018100, 0.007800
2024/03/21 06:05:00, 764273100.00, -0.003800, 0.022700, -0.010200
2024/03/21 06:10:00, 764273400.00, 0.001600, 0.026900, -0.022000
2024/03/21 06:15:00, 764273700.00, 0.004300, 0.022300, -0.020200
2024/03/21 06:20:00, 764274000.00, -0.000100, 0.025900, -0.011500
2024/03/21 06:25:00, 764274300.00, 0.005400, 0.035500, -0.020500
2024/03/21 06:30:00, 764274600.00, 0.008700, 0.035800, -0.031800
2024/03/21 06:35:00, 764274900.00, 0.016000, 0.034300, -0.014300
2024/03/21 06:40:00, 764275200.00, 0.017600, 0.040100, -0.026200
2024/03/21 06:45:00, 764275500.00, 0.021500, 0.035000, -0.033800
2024/03/21 06:50:00, 764275800.00, 0.031000, 0.039200, -0.051500
2024/03/21 06:55:00, 764276100.00, 0.031000, 0.031500, -0.029700
2024/03/21 07:00:00, 764276400.00, 0.042500, 0.037400, -0.063900
2024/03/21 07:05:00, 764276700.00, 0.044100, 0.040400, -0.055800
2024/03/21 07:10:00, 764277000.00, 0.024700, 0.033500, -0.025400
2024/03/21 07:15:00, 764277300.00, 0.039700, 0.038800, -0.037800
2024/03/21 07:20:00, 764277600.00, 0.025500, 0.034300, -0.023700
2024/03/21 07:25:00, 764277900.00, 0.030600, 0.033500, 0.005700
2024/03/21 07:30:00, 764278200.00, 0.026800, 0.033900, -0.013800
2024/03/21 07:35:00, 764278500.00, 0.028800, 0.029700, -0.016300
2024/03/21 07:40:00, 764278800.00, 0.026100, 0.033500, 0.014300
2024/03/21 07:45:00, 764279100.00, 0.021400, 0.027600, -0.040300
2024/03/21 07:50:00, 764279400.00, 0.022000, 0.030300, -0.000700
2024/03/21 07:55:00, 764279700.00, 0.028900, 0.025600, -0.004800
2024/03/21 08:00:00, 764280000.00, 0.016700, 0.025900, -0.001100
2024/03/21 08:05:00, 764280300.00, 0.025700, 0.027500, -0.011800
2024/03/21 08:10:00, 764280600.00, 0.015600, 0.024200, -0.001500
2024/03/21 08:15:00, 764280900.00, 0.021400, 0.024700, -0.011400
2024/03/21 08:20:00, 764281200.00, 0.015900, 0.027400, -0.008000
2024/03/21 08:25:00, 764281500.00, 0.018000, 0.018800, -0.008900
2024/03/21 08:30:00, 764281800.00, 0.020200, 0.025500, -0.005800
2024/03/21 08:35:00, 764282100.00, 0.010300, 0.027800, -0.029400
2024/03/21 08:40:00, 764282400.00, 0.022400, 0.029700, -0.010900
2024/03/21 08:45:00, 764282700.00, 0.015900, 0.027800, -0.015200
2024/03/21 08:50:00, 764283000.00, 0.017400, 0.031900, -0.017300
2024/03/21 08:55:00, 764283300.00, 0.017100, 0.036500, -0.024800
2024/03/21 09:00:00, 764283600.00, 0.014400, 0.035400, -0.011500
2024/03/21 09:05:00, 764283900.00, 0.020000, 0.045600, -0.026300
2024/03/21 09:10:00, 764284200.00, 0.013100, 0.038800, -0.003900
2024/03/21 09:15:00, 764284500.00, 0.019200, 0.045000, -0.034400
2024/03/21 09:20:00, 764284800.00, 0.011600, 0.041900, -0.011100
2024/03/21 09:25:00, 764285100.00, 0.017400, 0.039900, -0.007700
2024/03/21 09:30:00, 764285400.00, 0.018700, 0.045600, -0.021000
2024/03/21 09:35:00, 764285700.00, 0.023400, 0.046900, -0.038500
2024/03/21 09:40:00, 764286000.00, 0.025000, 0.039900, -0.032500
2024/03/21 09:45:00, 764286300.00, 0.031200, 0.040800, -0.058800
2024/03/21 09:50:00, 764286600.00, 0.020600, 0.044400, -0.045300
2024/03/21 09:55:00, 764286900.00, 0.030800, 0.045700, -0.065200
2024/03/21 10:00:00, 764287200.00, 0.023600, 0.042600, -0.041900
2024/03/21 10:05:00, 764287500.00, 0.017400, 0.045200, -0.031900
2024/03/21 10:10:00, 764287800.00, 0.019300, 0.042700, -0.025000
2024/03/21 10:15:00, 764288100.00, 0.015800, 0.048500, -0.017000
2024/03/21 10:20:00, 764288400.00, 0.019800, 0.039900, -0.022400
2024/03/21 10:25:00, 764288700.00, 0.010600, 0.042700, -0.029400
2024/03/21 10:30:00, 764289000.00, 0.009200, 0.040700, -0.018300
2024/03/21 10:35:00, 764289300.00, 0.004500, 0.038500, -0.006800
2024/03/21 10:40:00, 764289600.00, 0.013100, 0.042500, -0.035500
2024/03/21 10:45:00, 764289900.00, 0.002300, 0.042000, -0.005800
2024/03/21 10:50:00, 764290200.00, 0.003800, 0.036300, -0.023500
2024/03/21 10:55:00, 764290500.00, -0.003200, 0.041600, -0.039000
2024/03/21 11:00:00, 764290800.00, 0.009700, 0.041300, -0.037600
2024/03/21 11:05:00, 764291100.00, 0.009300, 0.043300, -0.035700
2024/03/21 11:10:00, 764291400.00, 0.012900, 0.043600, -0.043300
2024/03/21 11:15:00, 764291700.00, 0.019500, 0.046700, -0.021400
2024/03/21 11:20:00, 764292000.00, 0.008200, 0.039500, -0.037800
2024/03/21 11:25:00, 764292300.00, 0.013600, 0.046100, -0.021900
2024/03/21 11:30:00, 764292600.00, 0.008800, 0.044400, -0.017800
2024/03/21 11:35:00, 764292900.00, 0.016700, 0.049300, 0.001100
2024/03/21 11:40:00, 764293200.00, 0.019100, 0.044300, -0.010700
2024/03/21 11:45:00, 764293500.00, 0.007600, 0.044100, 0.010800
2024/03/21 11:50:00, 764293800.00, 0.010500, 0.041800, -0.032800
2024/03/21 11:55:00, 764294100.00, 0.018200, 0.034000, -0.010500
2024/03/21 12:00:00, 764294400.00, 0.009900, 0.039400, -0.022700
2024/03/21 12:05:00, 764294700.00, 0.012900, 0.043200, -0.033700
2024/03/21 12:10:00, 764295000.00, 0.016600, 0.043000, -0.027200
2024/03/21 12:15:00, 764295300.00, 0.017800, 0.044000, -0.017200
2024/03/21 12:20:00, 764295600.00, 0.020000, 0.046000, -0.027700
2024/03/21 12:25:00, 764295900.00, 0.023300, 0.046800, -0.019100
2024/03/21 12:30:00, 764296200.00, 0.008500, 0.040800, -0.009000
2024/03/21 12:35:00, 764296500.00, 0.025100, 0.050100, -0.043300
2024/03/21 12:40:00, 764296800.00, 0.028500, 0.049800, -0.039000
2024/03/21 12:45:00, 764297100.00, 0.026400, 0.049400, -0.032000
2024/03/21 12:50:00, 764297400.00, 0.014700, 0.049100, -0.000600
2024/03/21 12:55:00, 764297700.00, 0.024800, 0.047700, -0.018700
2024/03/21 13:00:00, 764298000.00, 0.012000, 0.040300, -0.023900
2024/03/21 13:05:00, 764298300.00, 0.014100, 0.038200, -0.033500
2024/03/21 13:10:00, 764298600.00, 0.013300, 0.044100, -0.025300
2024/03/21 13:15:00, 764298900.00, 0.021800, 0.044700, -0.021700
2024/03/21 13:20:00, 764299200.00, 0.012800, 0.042400, -0.016600
2024/03/21 13:25:00, 764299500.00, 0.017800, 0.049000, -0.019700
2024/03/21 13:30:00, 764299800.00, 0.021700, 0.051900, -0.000800
2024/03/21 13:35:00, 764300100.00, 0.019600, 0.044100, -0.018600
2024/03/21 13:40:00, 764300400.00, 0.021300, 0.042400, -0.013700
2024/03/21 13:45:00, 764300700.00, 0.039900, 0.049900, -0.031500
2024/03/21 13:50:00, 764301000.00, 0.028600, 0.044700, -0.024600
2024/03/21 13:55:00, 764301300.00, 0.030600, 0.043000, -0.017800
2024/03/21 14:00:00, 764301600.00, 0.030900, 0.047600, -0.013100
2024/03/21 14:05:00, 764301900.00, 0.024400, 0.048800, -0.018300
2024/03/21 14:10:00, 764302200.00, 0.026900, 0.051000, -0.018800
2024/03/21 14:15:00, 764302500.00, 0.028900, 0.052200, -0.027200
2024/03/21 14:20:00, 764302800.00, 0.031900, 0.049800, -0.017500
2024/03/21 14:25:00, 764303100.00, 0.021200, 0.049700, -0.031900
2024/03/21 14:30:00, 764303400.00, 0.025500, 0.047700, -0.026000
2024/03/21 14:35:00, 764303700.00, 0.017700, 0.042700, -0.004700
2024/03/21 14:40:00, 764304000.00, 0.024700, 0.051000, -0.040700
2024/03/21 14:45:00, 764304300.00, 0.021500, 0.051000, -0.033500
2024/03/21 14:50:00, 764304600.00, 0.018800, 0.043100, -0.015500
2024/03/21 14:55:00, 764304900.00, 0.023300, 0.053300, -0.030900
2024/03/21 15:00:00, 764305200.00, 0.017400, 0.042300, -0.013500
2024/03/21 15:05:00, 764305500.00, 0.016400, 0.047200, -0.019100
2024/03/21 15:10:00, 764305800.00, 0.014000, 0.049500, -0.031900
2024/03/21 15:15:00, 764306100.00, 0.021700, 0.046800, -0.027700
2024/03/21 15:20:00, 764306400.00, 0.025200, 0.046000, -0.042300
2024/03/21 15:25:00, 764306700.00, 0.024100, 0.042300, -0.023700
2024/03/21 15:30:00, 764307000.00, 0.018500, 0.044000, -0.029900
2024/03/21 15:35:00, 764307300.00, 0.020700, 0.043900, -0.028300
2024/03/21 15:40:00, 764307600.00, 0.023400, 0.049800, -0.035600
2024/03/21 15:45:00, 764307900.00, 0.012600, 0.043900, -0.014400
2024/03/21 15:50:00, 764308200.00, 0.016100, 0.045100, -0.021300
2024/03/21 15:55:00, 764308500.00, 0.018900, 0.046400, -0.015100
2024/03/21 16:00:00, 764308800.00, 0.012500, 0.043300, -0.026600
2024/03/21 16:05:00, 764309100.00, 0.015800, 0.050000, -0.033700
2024/03/21 16:10:00, 764309400.00, 0.017300, 0.048500, -0.019600
2024/03/21 16:15:00, 764309700.00, 0.020100, 0.048400, -0.025700
2024/03/21 16:20:00, 764310000.00, 0.012800, 0.045900, -0.011800
2024/03/21 16:25:00, 764310300.00, 0.009100, 0.046200, -0.016700
2024/03/21 16:30:00, 764310600.00, 0.021700, 0.044100, -0.030800
2024/03/21 16:35:00, 764310900.00, 0.016300, 0.052300, -0.015100
2024/03/21 16:40:00, 764311200.00, 0.020600, 0.046700, -0.027100
2024/03/21 16:45:00, 764311500.00, 0.014900, 0.050000, 0.000600
2024/03/21 16:50:00, 764311800.00, 0.014100, 0.043800, -0.009200
2024/03/21 16:55:00, 764312100.00, 0.019100, 0.048000, -0.014200
2024/03/21 17:00:00, 764312400.00, 0.021900, 0.043800, -0.021200
2024/03/21 17:05:00, 764312700.00, 0.023800, 0.049900, -0.022300
2024/03/21 17:10:00, 764313000.00, 0.028500, 0.055000, -0.027200
2024/03/21 17:15:00, 764313300.00, 0.023900, 0.053100, -0.029300
2024/03/21 17:20:00, 764313600.00, 0.025800, 0.052800, -0.028900
2024/03/21 17:25:00, 764313900.00, 0.024900, 0.044000, -0.011600
2024/03/21 17:30:00, 764314200.00, 0.025500, 0.049900, -0.015100
2024/03/21 17:35:00, 764314500.00, 0.027900, 0.045000, -0.023900
2024/03/21 17:40:00, 764314800.00, 0.029000, 0.040800, -0.008900
2024/03/21 17:45:00, 764315100.00, 0.018800, 0.049300, -0.025300
2024/03/21 17:50:00, 764315400.00, 0.023700, 0.044100, -0.031700
2024/03/21 17:55:00, 764315700.00, 0.027900, 0.048000, -0.042400
2024/03/21 18:00:00, 764316000.00, 0.023300, 0.044100, -0.016800
2024/03/21 18:05:00, 764316300.00, 0.015700, 0.040800, -0.017100
2024/03/21 18:10:00, 764316600.00, 0.020500, 0.045700, -0.021800
2024/03/21 18:15:00, 764316900.00, 0.021900, 0.046400, -0.036800
2024/03/21 18:20:00, 764317200.00, 0.026100, 0.042000, -0.018200
2024/03/21 18:25:00, 764317500.00, 0.011700, 0.051200, -0.040700
2024/03/21 18:30:00, 764317800.00, 0.013300, 0.052900, -0.040500
2024/03/21 18:35:00, 764318100.00, 0.005000, 0.046500, -0.020100
2024/03/21 18:40:00, 764318400.00, 0.020800, 0.043800, -0.045400
2024/03/21 18:45:00, 764318700.00, 0.024000, 0.043500, -0.033500
2024/03/21 18:50:00, 764319000.00, 0.019500, 0.044600, -0.028600
2024/03/21 18:55:00, 764319300.00, 0.016600, 0.037400, -0.024500
2024/03/21 19:00:00, 764319600.00, 0.024700, 0.043200, -0.024400
2024/03/21 19:05:00, 764319900.00, 0.016000, 0.042200, -0.032800
2024/03/21 19:10:00, 764320200.00, 0.019000, 0.038700, -0.032600
2024/03/21 19:15:00, 764320500.00, 0.018600, 0.040900, -0.033600
2024/03/21 19:20:00, 764320800.00, 0.020000, 0.040500, -0.019300
2024/03/21 19:25:00, 764321100.00, 0.018600, 0.042700, -0.031600
2024/03/21 19:30:00, 764321400.00, 0.024400, 0.039100, -0.034200
2024/03/21 19:35:00, 764321700.00, 0.025400, 0.044200, -0.030500
2024/03/21 19:40:00, 764322000.00, 0.025300, 0.039300, -0.017300
2024/03/21 19:45:00, 764322300.00, 0.023400, 0.043200, -0.027000
2024/03/21 19:50:00, 764322600.00, 0.026300, 0.036300, -0.019000
2024/03/21 19:55:00, 764322900.00, 0.025600, 0.042300, -0.023100
2024/03/21 20:00:00, 764323200.00, 0.020800, 0.037900, -0.008300
2024/03/21 20:05:00, 764323500.00, 0.015400, 0.036600, -0.038000
2024/03/21 20:10:00, 764323800.00, 0.005400, 0.036900, -0.032500
2024/03/21 20:15:00, 764324100.00, -0.003800, 0.037500, -0.055100
2024/03/21 20:20:00, 764324400.00, -0.000400, 0.035200, -0.033700
2024/03/21 20:25:00, 764324700.00, -0.004200, 0.042600, -0.057000
2024/03/21 20:30:00, 764325000.00, -0.003200, 0.043600, -0.037400
2024/03/21 20:35:00, 764325300.00, 0.000400, 0.040900, -0.029600
2024/03/21 20:40:00, 764325600.00, -0.001100, 0.040100, -0.040000
2024/03/21 20:45:00, 764325900.00, 0.005400, 0.043500, -0.019000
2024/03/21 20:50:00, 764326200.00, 0.004700, 0.044300, -0.011800
2024/03/21 20:55:00, 764326500.00, 0.009900, 0.044300, -0.009700
2024/03/21 21:00:00, 764326800.00, 0.008100, 0.047200, -0.022700
2024/03/21 21:05:00, 764327100.00, 0.009400, 0.037000, 0.002400
2024/03/21 21:10:00, 764327400.00, 0.004400, 0.051600, -0.013800
2024/03/21 21:15:00, 764327700.00, 0.007000, 0.049000, -0.001400
2024/03/21 21:20:00, 764328000.00, 0.009000, 0.047700, -0.008000
2024/03/21 21:25:00, 764328300.00, 0.010600, 0.044400, -0.014600
2024/03/21 21:30:00, 764328600.00, 0.005000, 0.044600, -0.010200
2024/03/21 21:35:00, 764328900.00, 0.007100, 0.044900, -0.010300
2024/03/21 21:40:00, 764329200.00, 0.013600, 0.051300, -0.012200
2024/03/21 21:45:00, 764329500.00, 0.013700, 0.041600, -0.009000
2024/03/21 21:50:00, 764329800.00, 0.012100, 0.048900, -0.020300
2024/03/21 21:55:00, 764330100.00, 0.010000, 0.035100, -0.016700
2024/03/21 22:00:00, 764330400.00, 0.011900, 0.046700, -0.013400
2024/03/21 22:05:00, 764330700.00, 0.010300, 0.044700, -0.025900
2024/03/21 22:10:00, 764331000.00, 0.009400, 0.045600, -0.011100
2024/03/21 22:15:00, 764331300.00, 0.013400, 0.045400, -0.020200
2024/03/21 22:20:00, 764331600.00, 0.017200, 0.044200, -0.028100
2024/03/21 22:25:00, 764331900.00, 0.008400, 0.050700, -0.006700
2024/03/21 22:30:00, 764332200.00, 0.004200, 0.045400, -0.008800
2024/03/21 22:35:00, 764332500.00, 0.007300, 0.047100, -0.012400
2024/03/21 22:40:00, 764332800.00, 0.009900, 0.053800, -0.027200
2024/03/21 22:45:00, 764333100.00, 0.009800, 0.046200, -0.007200
2024/03/21 22:50:00, 764333400.00, 0.011300, 0.045400, -0.024000
2024/03/21 22:55:00, 764333700.00, 0.005200, 0.047600, -0.024100
2024/03/21 23:00:00, 764334000.00, 0.009900, 0.051100, -0.027800
2024/03/21 23:05:00, 764334300.00, 0.010600, 0.045600, -0.010300
2024/03/21 23:10:00, 764334600.00, 0.013100, 0.043100, 0.017200
2024/03/21 23:15:00, 764334900.00, 0.006400, 0.048600, 0.015300
2024/03/21 23:20:00, 764335200.00, 0.015900, 0.049700, 0.022900
2024/03/21 23:25:00, 764335500.00, 0.005500, 0.045900, -0.037800
2024/03/21 23:30:00, 764335800.00, 0.009700, 0.047200, -0.021700
2024/03/21 23:35:00, 764336100.00, 0.003200, 0.047700, 0.005600
2024/03/21 23:40:00, 764336400.00, 0.000900, 0.044000, -0.032000
2024/03/21 23:45:00, 764336700.00, 0.006800, 0.046600, -0.009600
2024/03/21 23:50:00, 764337000.00, 0.012500, 0.049200, -0.027100
2024/03/21 23:55:00, 764337300.00, 0.008200, 0.052200, -0.025800
2024/03/22 00:00:00, 764337600.00, -0.006000, -0.001900, -0.037900
2024/03/22 00:05:00, 764337900.00, -0.007000, -0.001700, -0.031200
2024/03/22 00:10:00, 764338200.00, 0.000100, -0.001500, -0.051100
2024/03/22 00:15:00, 764338500.00, -0.005600, -0.002200, -0.006500
2024/03/22 00:20:00, 764338800.00, 0.002000, 0.005200, -0.038900
2024/03/22 00:25:00, 764339100.00, 0.001000, 0.000500, -0.037000
2024/03/22 00:30:00, 764339400.00, 0.007100, -0.001100, -0.028000
2024/03/22 00:35:00, 764339700.00, 0.002400, 0.004500, -0.032000
2024/03/22 00:40:00, 764340000.00, 0.005000, 0.005300, -0.015900
2024/03/22 00:45:00, 764340300.00, 0.006300, 0.003300, -0.030400
2024/03/22 00:50:00, 764340600.00, 0.013000, 0.008800, -0.026400
2024/03/22 00:55:00, 764340900.00, 0.016900, 0.004900, -0.010500
2024/03/22 01:00:00, 764341200.00, 0.014500, 0.006000, -0.019800
2024/03/22 01:05:00, 764341500.00, 0.013200, 0.007000, -0.012600
2024/03/22 01:10:00, 764341800.00, 0.003500, 0.014800, -0.019200
2024/03/22 01:15:00, 764342100.00, 0.018900, 0.010400, -0.031100
2024/03/22 01:20:00, 764342400.00, 0.003500, 0.012500, -0.010200
2024/03/22 01:25:00, 764342700.00, 0.002400, 0.014900, -0.007900
2024/03/22 01:30:00, 764343000.00, 0.012700, 0.010000, -0.014100
2024/03/22 01:35:00, 764343300.00, -0.002100, 0.015900, 0.007500
2024/03/22 01:40:00, 764343600.00, 0.004400, 0.019300, -0.009900
2024/03/22 01:45:00, 764343900.00, 0.005700, 0.014000, -0.010100
2024/03/22 01:50:00, 764344200.00, 0.017500, 0.017200, 0.008100
2024/03/22 01:55:00, 764344500.00, 0.014000, 0.014700, 0.007900
2024/03/22 02:00:00, 764344800.00, 0.017300, 0.017700, 0.003600
2024/03/22 02:05:00, 764345100.00, 0.019100, 0.016700, -0.005900
2024/03/22 02:10:00, 764345400.00, 0.011700, 0.015500, -0.006500
2024/03/22 02:15:00, 764345700.00, 0.014600, 0.013000, 0.021600
2024/03/22 02:20:00, 764346000.00, 0.004200, 0.017800, 0.005200
2024/03/22 02:25:00, 764346300.00, 0.010500, 0.018100, 0.002400
2024/03/22 02:30:00, 764346600.00, 0.016200, 0.018200, 0.006800
2024/03/22 02:35:00, 764346900.00, 0.021300, 0.020700, -0.001000
2024/03/22 02:40:00, 764347200.00, 0.015300, 0.015300, 0.012600
2024/03/22 02:45:00, 764347500.00, 0.016000, 0.021500, 0.008200
2024/03/22 02:50:00, 764347800.00, 0.015500, 0.019300, 0.021800
2024/03/22 02:55:00, 764348100.00, 0.006500, 0.015900, 0.019100
2024/03/22 03:00:00, 764348400.00, 0.013700, 0.017000, -0.001900
2024/03/22 03:05:00, 764348700.00, 0.009900, 0.019200, -0.007700
2024/03/22 03:10:00, 764349000.00, 0.005400, 0.017700, 0.020100
2024/03/22 03:15:00, 764349300.00, 0.009400, 0.025800, -0.002300
2024/03/22 03:20:00, 764349600.00, 0.004900, 0.024400, -0.009500
2024/03/22 03:25:00, 764349900.00, 0.015600, 0.019600, -0.007000
2024/03/22 03:30:00, 764350200.00, 0.012300, 0.019600, 0.008000
2024/03/22 03:35:00, 764350500.00, 0.018600, 0.025900, -0.013200
2024/03/22 03:40:00, 764350800.00, 0.018600, 0.028900, -0.014400
2024/03/22 03:45:00, 764351100.00, 0.013500, 0.026700, 0.022000
2024/03/22 03:50:00, 764351400.00, 0.011100, 0.031200, 0.012700
2024/03/22 03:55:00, 764351700.00, -0.008000, 0.021400, 0.012600
2024/03/22 04:00:00, 764352000.00, -0.008200, 0.022600, 0.025200
2024/03/22 04:05:00, 764352300.00, 0.004500, 0.027500, -0.010700
2024/03/22 04:10:00, 764352600.00, 0.005500, 0.027300, -0.009800
2024/03/22 04:15:00, 764352900.00, 0.010400, 0.031900, -0.003100
2024/03/22 04:20:00, 764353200.00, 0.007900, 0.037000, -0.001000
2024/03/22 04:25:00, 764353500.00, 0.004400, 0.027800, -0.007600
2024/03/22 04:30:00, 764353800.00, 0.025400, 0.027500, -0.019900
2024/03/22 04:35:00, 764354100.00, 0.023000, 0.033500, -0.004400
2024/03/22 04:40:00, 764354400.00, 0.015600, 0.030500, -0.010600
2024/03/22 04:45:00, 764354700.00, 0.016000, 0.030300, -0.026700
2024/03/22 04:50:00, 764355000.00, 0.018700, 0.029400, -0.025600
2024/03/22 04:55:00, 764355300.00, 0.023500, 0.031200, -0.016700
2024/03/22 05:00:00, 764355600.00, 0.022900, 0.028700, 0.002000
2024/03/22 05:05:00, 764355900.00, 0.021600, 0.037200, 0.005400
2024/03/22 05:10:00, 764356200.00, 0.022100, 0.030500, -0.005600
2024/03/22 05:15:00, 764356500.00, 0.025000, 0.035000, -0.011500
2024/03/22 05:20:00, 764356800.00, 0.026300, 0.034600, 0.001200
2024/03/22 05:25:00, 764357100.00, 0.020300, 0.038200, 0.006000
2024/03/22 05:30:00, 764357400.00, 0.016700, 0.033000, -0.004300
2024/03/22 05:35:00, 764357700.00, 0.010100, 0.035100, -0.011400
2024/03/22 05:40:00, 764358000.00, 0.015700, 0.038500, -0.009700
2024/03/22 05:45:00, 764358300.00, 0.009800, 0.050800, -0.034500
2024/03/22 05:50:00, 764358600.00, 0.013200, 0.037000, -0.017600
2024/03/22 05:55:00, 764358900.00, 0.013400, 0.036600, -0.003100
2024/03/22 06:00:00, 764359200.00, 0.014000, 0.043900, -0.022700
2024/03/22 06:05:00, 764359500.00, 0.011700, 0.043500, -0.013500
2024/03/22 06:10:00, 764359800.00, 0.007400, 0.039300, -0.008700
2024/03/22 06:15:00, 764360100.00, 0.005200, 0.038600, -0.008100
2024/03/22 06:20:00, 764360400.00, 0.022600, 0.043800, -0.024700
2024/03/22 06:25:00, 764360700.00, 0.023200, 0.040500, -0.024700
2024/03/22 06:30:00, 764361000.00, 0.024800, 0.037700, -0.014700
2024/03/22 06:35:00, 764361300.00, 0.031100, 0.040500, -0.028500